Location: Austin
(30.3000°N, 97.7500°W)
Time: 03:07:29
(UTC-05:00)

COSMO-SKYMED 1 - Pass Details

Date: 01 October 2024
Orbit: 621 x 623 km, 97.9° (Epoch: 06 October)

Event Time Altitude Azimuth Distance (km) Brightness Sun altitude
Rises 19:40:56 0° 7° (N) 2,902 5.9 -6.3°
Reaches altitude 10° 19:43:09 10° 4° (N) 1,993 5.1 -6.8°
Maximum altitude 19:47:25 62° 284° (WNW) 697 3.2 -7.7°
Drops below altitude 10° 19:51:41 10° 204° (SSW) 1,982 5.5 -8.6°
Sets 19:53:52 0° 200° (SSW) 2,885 6.3 -9.1°
